Weather History for KTYR - March, 2015

Change the Weather History Date:

Monday, March 30, 2015

  Actual Average Record
Temperature  
Mean Temperature 69 °F 60 °F  
Max Temperature 75 °F 70 °F 91 °F (1946)
Min Temperature 63 °F 50 °F 30 °F (2003)
Degree Days  
Heating Degree Days 0 6  
Month to date heating degree days 265 266  
Since 1 July heating degree days 2152 2158  
Cooling Degree Days 4 1  
Month to date cooling degree days 26 18  
Year to date cooling degree days 26 30  
Growing Degree Days 20 (Base 50)    
Moisture  
Dew Point 61 °F    
Average Humidity 74    
Maximum Humidity 87    
Minimum Humidity 60    
Precipitation  
Precipitation 0.00 in 0.11 in 2.64 in (1989)
Month to date precipitation 6.65 4.01  
Year to date precipitation 13.97 10.88  
Snow  
Snow 0.00 in - - ()
Month to date snowfall 0.5  
Since 1 July snowfall 2.1  
Snow Depth 0.00 in    
Sea Level Pressure  
Sea Level Pressure 30.12 in    
Wind  
Wind Speed 7 mph (South)    
Max Wind Speed 15 mph    
Max Gust Speed 20 mph    
Visibility 10 miles    
Events      
T = Trace of Precipitation, MM = Missing Value Source: NWS Daily Summary

Daily Weather History Graph

Daily Weather History Graph

Search for Another Location

Airport or City:

Trip Planner

Search our weather history database for the weather conditions in past years. The results will help you decide how hot, cold, wet, or windy it might be!

Date:

Astronomy

Mar. 30, 2015 Rise Set
Actual Time 7:12 AM CDT 7:39 PM CDT
Civil Twilight 6:48 AM CDT 8:04 PM CDT
Nautical Twilight 6:19 AM CDT 8:33 PM CDT
Astronomical Twilight 5:49 AM CDT 9:02 PM CDT
Moon 3:44 PM CDT (3/30) 4:23 AM CDT (3/30)
Length of Visible Light 13h 16m
Length of Day
12h 27m
Waxing Gibbous, 81% of the Moon is Illuminated
Mar 30
Waxing Gibbous
Apr 4
Full
Apr 11
Last Quarter
Apr 18
New
Apr 25
First Quarter

Hourly Weather History & Observations

Time (CDT) Temp. Dew Point Humidity Pressure Visibility Wind Dir Wind Speed Gust Speed Precip Events Conditions
12:53 AM 68.0 °F 57.9 °F 70% 30.10 in 10.0 mi SSW 9.2 mph - N/A   Partly Cloudy
1:53 AM 66.9 °F 59.0 °F 76% 30.10 in 10.0 mi SSW 11.5 mph 20.7 mph N/A   Clear
2:53 AM 66.0 °F 59.0 °F 78% 30.10 in 10.0 mi SSW 10.4 mph - N/A   Clear
3:53 AM 64.9 °F 59.0 °F 81% 30.09 in 10.0 mi SSW 9.2 mph - N/A   Partly Cloudy
4:29 AM 64.9 °F 59.0 °F 81% 30.11 in 10.0 mi SSW 8.1 mph - N/A   Mostly Cloudy
4:53 AM 66.0 °F 60.1 °F 81% 30.10 in 10.0 mi SSW 10.4 mph - N/A   Overcast
5:53 AM 66.0 °F 60.1 °F 81% 30.12 in 10.0 mi Calm Calm - N/A   Overcast
6:22 AM 66.0 °F 60.1 °F 81% 30.15 in 10.0 mi ENE 3.5 mph - N/A   Overcast
6:53 AM 66.0 °F 60.1 °F 81% 30.14 in 10.0 mi East 4.6 mph - N/A   Overcast
7:53 AM 64.9 °F 60.1 °F 84% 30.16 in 10.0 mi SE 5.8 mph - N/A   Overcast
8:17 AM 66.0 °F 61.0 °F 84% 30.17 in 10.0 mi SE 5.8 mph - N/A   Overcast
8:53 AM 66.0 °F 61.0 °F 84% 30.16 in 10.0 mi SSE 6.9 mph - N/A   Overcast
9:51 AM 66.2 °F 62.6 °F 88% 30.19 in 6.0 mi SSE 6.9 mph - N/A   Overcast
9:53 AM 66.0 °F 62.1 °F 87% 30.18 in 6.0 mi SSE 8.1 mph - N/A   Overcast
10:24 AM 66.0 °F 63.0 °F 90% 30.20 in 4.0 mi SSE 8.1 mph - N/A   Overcast
10:53 AM 68.0 °F 63.0 °F 84% 30.18 in 10.0 mi South 8.1 mph - N/A   Overcast
11:15 AM 70.0 °F 63.0 °F 78% 30.20 in 10.0 mi South 9.2 mph - N/A   Overcast
11:53 AM 71.1 °F 62.1 °F 73% 30.18 in 10.0 mi South 8.1 mph - N/A   Overcast
12:53 PM 71.1 °F 61.0 °F 70% 30.17 in 10.0 mi South 10.4 mph - N/A   Overcast
1:53 PM 73.9 °F 61.0 °F 64% 30.15 in 10.0 mi South 8.1 mph - N/A   Overcast
2:53 PM 73.9 °F 61.0 °F 64% 30.12 in 10.0 mi SSW 8.1 mph - N/A   Overcast
3:53 PM 73.9 °F 61.0 °F 64% 30.10 in 10.0 mi WSW 6.9 mph - N/A   Overcast
4:53 PM 73.9 °F 61.0 °F 64% 30.07 in 10.0 mi SSW 6.9 mph - N/A   Overcast
5:53 PM 75.0 °F 61.0 °F 62% 30.06 in 10.0 mi South 9.2 mph - N/A   Overcast
6:53 PM 73.9 °F 62.1 °F 66% 30.05 in 10.0 mi SSE 4.6 mph - N/A   Overcast
7:53 PM 70.0 °F 61.0 °F 73% 30.05 in 10.0 mi SE 4.6 mph - N/A   Overcast
8:53 PM 66.0 °F 61.0 °F 84% 30.05 in 10.0 mi SE 5.8 mph - N/A   Clear
9:53 PM 64.9 °F 60.1 °F 84% 30.06 in 10.0 mi SE 4.6 mph - N/A   Clear
10:53 PM 64.9 °F 60.1 °F 84% 30.06 in 10.0 mi SSE 5.8 mph - N/A   Clear
11:53 PM 64.9 °F 60.1 °F 84% 30.04 in 10.0 mi South 8.1 mph - N/A   Clear